#timestamp,LO_Frequency,Hit,StdDev 
1514012415.2,286047004.2,N
1514012435.1,286046999.7,N
1514012436.0,286046999.7,N
1514012455.8,286047002.5,N
1514012475.6,286046998.1,N
1514012495.5,286046997.4,N
1514012515.3,286046999.6,N
1514012535.2,286046995.0,N
1514012555.9,286046997.9,N
1514012575.7,286046997.3,N
1514012595.6,286046998.3,N
1514012615.4,286047001.2,N
1514012635.2,286047000.8,N
1514012655.1,286046998.7,N
1514012656.0,286046998.7,N
1514012675.8,286046998.8,N
1514012695.7,286046999.2,N
1514012715.5,286046998.3,N
1514012735.3,286046997.7,N
1514012755.2,286046997.6,N
1514012775.0,286046999.0,N
1514012775.9,286046999.0,N
1514012795.8,286047001.0,N
1514012815.6,286047000.6,N
1514012835.4,286047000.1,N
1514012855.3,286047000.1,N
1514012875.1,286047002.1,N
1514012895.9,286047002.4,N
1514012915.7,286047001.3,N
1514012935.5,286047003.6,N
1514012955.4,286047003.5,N
1514012975.2,286047004.0,N
1514012995.0,286047001.9,N
1514012995.9,286047001.9,N
1514013015.8,286047003.6,N
1514013035.6,286047001.8,N
1514013055.5,286047004.4,N
1514013075.3,286047002.9,N
1514013095.1,286047005.0,N
1514013115.9,286047006.9,Y
1514013135.7,286047005.1,P
1514013155.6,286047005.5,N
1514013175.4,286047003.0,N
1514013195.2,286047002.3,N
1514013215.1,286047001.7,N
1514013216.0,286047001.7,N
1514013235.8,286047002.2,N
1514013255.6,286047001.9,N
1514013275.5,286046999.9,N
1514013295.3,286047002.3,N
1514013315.2,286047001.8,N
1514013335.9,286047005.9,Y
1514013355.7,286047001.7,P
1514013375.6,286047003.3,P
1514013395.4,286047004.4,P
1514013415.3,286047001.7,N
1514013435.1,286046998.1,N
1514013436.0,286046998.1,N
1514013455.8,286047000.6,N
1514013475.7,286047000.8,N
1514013495.5,286046998.6,N
1514013515.4,286046999.5,N
1514013535.2,286046996.8,N
1514013555.0,286046996.7,N
1514013555.9,286046996.7,N
1514013575.8,286046998.8,N
1514013595.6,286047001.1,N
1514013615.4,286047000.3,N
1514013635.3,286047000.5,N
1514013655.1,286047002.5,N
1514013675.9,286047001.4,N
1514013695.7,286047002.7,N
1514013715.5,286047000.9,N
1514013735.4,286046998.1,N
1514013755.2,286047000.3,N
1514013775.1,286047000.8,N
1514013776.0,286047000.8,N
1514013795.8,286046998.3,N
1514013815.6,286047001.1,N
1514013835.5,286047000.8,N
1514013855.3,286047001.2,N
1514013875.1,286047001.1,N
1514013895.9,286046998.6,N
1514013915.7,286046998.4,N
1514013935.6,286047000.7,N
1514013955.4,286047000.7,N
1514013975.2,286046999.1,N
1514013995.1,286046996.8,N
1514013996.0,286046996.8,N
1514014015.8,286046999.3,N
1514014035.7,286047000.4,N
1514014055.5,286047000.1,N
1514014075.3,286046998.5,N
1514014095.2,286047001.1,N
1514014115.0,286047000.5,N
1514014115.9,286047000.5,N
1514014135.8,286046999.1,N
1514014155.6,286046997.5,N
1514014175.4,286046998.6,N
1514014195.3,286046998.5,N
1514014215.1,286046998.5,N
1514014235.8,286047002.7,N
1514014255.7,286047001.2,N
1514014275.5,286046995.3,Y
1514014295.4,286046999.5,P
1514014315.2,286046999.5,P
1514014335.0,286046996.9,P
1514014335.9,286046996.9,N
1514014355.8,286046998.1,N
1514014375.6,286047000.4,N
1514014395.5,286047000.8,N
1514014415.3,286047000.5,N
1514014435.1,286046998.1,N
1514014455.9,286046998.8,N
1514014475.7,286046996.5,N
1514014495.5,286046999.5,N
1514014515.4,286046999.2,N
1514014535.2,286046997.9,N
1514014555.1,286046995.5,Y
1514014556.0,286046995.5,P
1514014575.8,286046996.7,N
1514014595.6,286047000.3,N
1514014615.5,286047001.9,N
1514014635.3,286047004.0,N
1514014655.2,286047004.1,N
1514014675.9,286047002.0,N
1514014695.7,286047001.9,N
1514014715.6,286047004.4,N
1514014735.4,286047000.2,N
1514014755.3,286047002.3,N
1514014775.1,286047002.8,N
1514014776.0,286047002.8,N
1514014795.8,286047002.8,N
1514014815.7,286047001.0,N
1514014835.5,286046999.2,N
1514014855.4,286047011.9,Y
1514014875.2,286046995.9,P
1514014895.0,286046996.4,N
1514014895.9,286046996.4,N
1514014915.8,286046997.7,N
1514014935.6,286046997.9,N
1514014955.4,286046997.0,N
1514014975.3,286046997.1,N
1514014995.1,286046995.9,N
1514015015.9,286046996.3,N
1514015035.7,286046997.8,N
1514015055.5,286046996.8,N
1514015075.4,286046998.0,N
1514015095.2,286046997.9,N
1514015115.1,286046995.3,Y
1514015116.0,286046995.3,P
1514015135.8,286047001.0,N
1514015155.6,286046998.7,N
1514015175.5,286047002.4,N
1514015195.3,286047001.6,N
1514015215.2,286047004.1,N
1514015235.9,286047003.7,N
1514015255.7,286047005.6,N
1514015275.6,286047005.7,N
1514015295.4,286047001.5,N
1514015315.3,286047001.6,N
1514015335.1,286047002.4,N
1514015336.0,286047002.4,N
1514015355.8,286047002.8,N
1514015375.7,286047000.6,N
1514015395.5,286046999.4,N
1514015415.4,286046998.4,N
1514015435.2,286047002.2,N
1514015455.0,286047004.4,N
1514015455.9,286047004.4,N
1514015475.8,286047002.2,N
1514015495.6,286047002.8,N
1514015515.4,286047001.5,N
1514015535.3,286046998.1,N
1514015555.1,286046996.6,N
1514015575.9,286046999.4,N
1514015595.7,286046998.2,N
1514015615.5,286047000.7,N
1514015635.4,286047002.4,N
1514015655.2,286047000.3,N
1514015675.0,286046999.0,N
1514015676.0,286046999.0,N
1514015695.8,286046998.7,N
1514015715.6,286047000.7,N
1514015735.5,286047000.8,N
1514015755.3,286046999.7,N
1514015775.2,286047002.2,N
1514015795.9,286047001.6,N
1514015815.7,286047003.8,N
1514015835.6,286047004.2,N
1514015855.4,286047003.5,N
1514015875.2,286047005.6,N
1514015895.1,286047004.5,N
1514015896.0,286047004.5,N
1514015915.8,286047005.4,N
1514015935.7,286047003.9,N
1514015955.5,286047000.2,N
1514015975.3,286046998.9,N
1514015995.2,286047000.7,N
